星链-37459(STARLINK-37459)

导读

STARLINK-37459(NORAD编号68814)是美国SpaceX公司星链(Starlink)卫星互联网星座的一员,属于低地球轨道(LEO)通信卫星。星链项目旨在通过大规模低轨卫星组网,为全球尤其是地面基础设施覆盖不足的偏远地区提供高速低延迟互联网接入服务,该卫星随星链批量发射计划入轨,当前处于在轨运行状态,运行轨道近地点和远地点约在五百余公里,轨道周期约96分钟,倾角适配星链星座组网架构,为星座全球网络覆盖提供支撑,助力星链持续拓展服务能力。

基本信息
目录编号:
68814
目录名称:
STARLINK-37459
国际标识:
2026-089N
轨道中心:
EARTH
卫星名称:
星链-37459
卫星全名:
星链-37459(STARLINK-37459)
卫星状态:
在轨 (已飞行134 天)
发射日期:
2026-04-23 UTC
国别 :
美国 (US)
星等 :
--
轨道信息
数据来源 国际轨道数据 AOE轨道数据
星历时间 2026-09-03T20:00:58+0800
1天前
查看轨道信息
2026-09-01T02:00:00+0800
3天前
查看轨道信息
半长轴 6843.65km 6843.769km
偏心率 0.0002549 0.0001439
轨道倾角 97.285° 97.286°
近地点辐角 98.332° 85.134°
升交点赤经 92.501° 89.791°
平近点角 261.821° 220.093°
近地点 463.768km 464.647km
远地点 467.258km 466.617km
周期 93.906分钟 93.908分钟
每日圈数 15.334552 15.334153
详细信息
固有亮度:
5
最大亮度:
2.5
卫星平台:
Starlink V1.0
覆盖范围:
全球
运营商:
太空探索技术公司
运营商所在国:
美国
制造商(研发单位):
太空探索技术公司
制造商所在国:
美国
使用方式:
暂无
卫星简介
Starlink 计划是 SpaceX 推出的全球卫星互联网项目,通过发射低轨道卫星,为全球尤其是偏远地区提供高速、低延迟的互联网服务。自 2019 年起,Starlink 已部署数千颗卫星,旨在缩小全球数字鸿沟,推动互联网普及。该项目还为军事、航空等行业提供通信支持,带来广泛经济效益。
2D轨道图
3D轨道图
轨道高度分析图
轨道倾角分析图
轨道综合分析图
查看轨道综合分析图
交会数据列表
事件ID 空间交会对象 最接近时刻(TCA) 交会距离 交会风险概率(CRP) 交会风险指数(CRI) 操作
CDM_260905-121404-464106-881421
2026-09-05T
12:14:26+0000
1.656 km
极远距离
4.643161E-6 低风险 0.48
CDM_260828-130103-008206-881421
2026-08-28T
13:01:37+0000
2.066 km
极远距离
2.525205E-6 低风险 0.43
CDM_260906-163204-836706-881421
2026-09-06T
16:32:08+0000
2.907 km
极远距离
1.318239E-6 低风险 0.37
CDM_260906-040005-263506-881421
2026-09-06T
04:00:58+0000
2.685 km
极远距离
1.174399E-6 低风险 0.36
CDM_260906-043606-324006-881421
2026-09-06T
04:36:03+0000
2.569 km
极远距离
1.014949E-6 低风险 0.35